TimePDT,TemperatureF,Dew PointF,Humidity,Sea Level PressureIn,VisibilityMPH,Wind Direction,Wind SpeedMPH,Gust SpeedMPH,PrecipitationIn,Events,Conditions,WindDirDegrees,DateUTC
5:56 AM,55.9,41.0,57,29.84,10.0,SSE,8.1,-,N/A,,Scattered Clouds,160,2012-10-11 12:56:00
6:56 AM,55.0,39.9,57,29.85,10.0,South,9.2,-,N/A,,Scattered Clouds,190,2012-10-11 13:56:00
7:56 AM,57.0,41.0,55,29.88,10.0,SSW,5.8,-,N/A,,Scattered Clouds,200,2012-10-11 14:56:00
8:56 AM,59.0,41.0,51,29.88,10.0,WSW,4.6,-,N/A,,Scattered Clouds,240,2012-10-11 15:56:00
9:56 AM,62.1,41.0,46,29.88,10.0,West,4.6,-,N/A,,Scattered Clouds,270,2012-10-11 16:56:00
10:56 AM,64.9,39.0,39,29.87,10.0,SSW,6.9,-,N/A,,Scattered Clouds,210,2012-10-11 17:56:00
11:56 AM,68.0,37.0,32,29.85,10.0,Variable,5.8,-,N/A,,Scattered Clouds,0,2012-10-11 18:56:00
12:56 PM,70.0,37.0,30,29.83,10.0,East,8.1,-,N/A,,Scattered Clouds,100,2012-10-11 19:56:00
1:56 PM,69.1,37.9,32,29.79,10.0,Variable,5.8,-,N/A,,Mostly Cloudy,0,2012-10-11 20:56:00
2:56 PM,69.1,37.9,32,29.78,10.0,East,6.9,-,N/A,,Mostly Cloudy,90,2012-10-11 21:56:00
3:56 PM,72.0,36.0,27,29.77,10.0,South,9.2,19.6,N/A,,Scattered Clouds,170,2012-10-11 22:56:00
4:56 PM,69.1,34.0,27,29.77,10.0,South,18.4,24.2,N/A,,Scattered Clouds,180,2012-10-11 23:56:00
5:56 PM,63.0,39.9,43,29.78,10.0,South,23.0,36.8,N/A,,Scattered Clouds,190,2012-10-12 00:56:00
6:56 PM,62.1,42.1,48,29.81,10.0,South,18.4,-,N/A,,Mostly Cloudy,180,2012-10-12 01:56:00
7:56 PM,62.1,41.0,46,29.82,10.0,South,16.1,-,N/A,,Mostly Cloudy,190,2012-10-12 02:56:00
8:40 PM,60.8,41.0,48,29.85,10.0,WNW,20.7,26.5,N/A,,Overcast,300,2012-10-12 03:40:00
8:56 PM,60.1,39.9,47,29.84,10.0,WNW,17.3,-,N/A,,Overcast,300,2012-10-12 03:56:00
9:56 PM,60.1,39.9,47,29.86,10.0,WNW,12.7,-,N/A,,Overcast,300,2012-10-12 04:56:00
10:56 PM,61.0,39.9,46,29.87,10.0,NNW,9.2,-,N/A,,Overcast,330,2012-10-12 05:56:00
11:56 PM,55.0,48.0,77,29.89,10.0,NW,12.7,-,0.00,Rain,Light Rain,310,2012-10-12 06:56:00